Time,TemperatureF,DewpointF,PressureIn,WindDirection,WindDirectionDegrees,WindSpeedMPH,WindSpeedGustMPH,Humidity,HourlyPrecipIn,Conditions,Clouds,dailyrainin,SoftwareType,DateUTC
2013-07-25 00:00:00,75.6,69.4,29.76,SE,145,0.0,0.0,81,0.00,,---,0.00,VWS V14.01,2013-07-25 04:00:00,
2013-07-25 00:01:00,75.4,70.2,29.78,NE,51,0.0,0.0,84,0.00,,---,0.00,VWS V14.01,2013-07-25 04:01:00,
2013-07-25 00:05:00,75.4,69.5,29.76,SE,145,0.0,0.0,82,0.00,,---,0.00,VWS V14.01,2013-07-25 04:05:00,
2013-07-25 00:07:00,75.4,69.9,29.78,NE,48,0.0,0.0,83,0.00,,---,0.00,VWS V14.01,2013-07-25 04:07:00,
2013-07-25 00:10:00,75.3,69.4,29.76,SE,145,0.0,0.0,82,0.00,,---,0.00,VWS V14.01,2013-07-25 04:10:00,
2013-07-25 00:12:00,75.4,69.5,29.78,NE,48,0.0,0.0,82,0.00,,---,0.00,VWS V14.01,2013-07-25 04:12:00,
2013-07-25 00:15:00,75.1,69.6,29.76,SE,145,0.0,0.0,83,0.00,,---,0.00,VWS V14.01,2013-07-25 04:15:00,
2013-07-25 00:17:00,75.4,69.5,29.78,NE,48,0.0,0.0,82,0.00,,---,0.00,VWS V14.01,2013-07-25 04:17:00,
2013-07-25 00:20:00,75.1,69.6,29.76,SE,145,0.0,0.0,83,0.00,,---,0.00,VWS V14.01,2013-07-25 04:20:00,
2013-07-25 00:22:00,75.6,69.7,29.78,NE,48,0.0,0.0,82,0.00,,---,0.00,VWS V14.01,2013-07-25 04:22:00,
2013-07-25 00:25:00,75.1,69.9,29.76,SE,145,0.0,0.0,84,0.00,,---,0.00,VWS V14.01,2013-07-25 04:25:00,
2013-07-25 00:27:00,75.4,69.2,29.78,NE,48,0.0,0.0,81,0.00,,---,0.00,VWS V14.01,2013-07-25 04:27:00,
2013-07-25 00:30:00,75.1,69.6,29.77,SE,145,0.0,0.0,83,0.00,,---,0.00,VWS V14.01,2013-07-25 04:30:00,
2013-07-25 00:32:00,75.3,69.1,29.78,NE,48,0.0,0.0,81,0.00,,---,0.00,VWS V14.01,2013-07-25 04:32:00,
2013-07-25 00:35:00,75.3,69.8,29.77,SE,145,0.0,0.0,83,0.00,,---,0.00,VWS V14.01,2013-07-25 04:35:00,
2013-07-25 00:37:00,75.3,69.1,29.78,NE,48,0.0,0.0,81,0.00,,---,0.00,VWS V14.01,2013-07-25 04:37:00,
2013-07-25 00:40:00,75.1,69.9,29.77,SE,145,0.0,0.0,84,0.00,,---,0.00,VWS V14.01,2013-07-25 04:40:00,
2013-07-25 00:42:00,75.3,69.1,29.78,NE,48,0.0,0.0,81,0.00,,---,0.00,VWS V14.01,2013-07-25 04:42:00,
2013-07-25 00:45:00,75.1,69.9,29.78,SE,145,0.0,0.0,84,0.00,,---,0.00,VWS V14.01,2013-07-25 04:45:00,
2013-07-25 00:47:00,75.3,69.1,29.78,ENE,72,0.0,0.0,81,0.00,,---,0.00,VWS V14.01,2013-07-25 04:47:00,
2013-07-25 00:50:00,75.3,70.1,29.78,SSE,147,0.0,0.0,84,0.00,,---,0.00,VWS V14.01,2013-07-25 04:50:00,
2013-07-25 00:52:00,75.1,68.9,29.78,SSW,209,0.0,0.0,81,0.00,,---,0.00,VWS V14.01,2013-07-25 04:52:00,
2013-07-25 00:55:00,75.3,70.1,29.78,NE,51,0.0,0.0,84,0.00,,---,0.00,VWS V14.01,2013-07-25 04:55:00,
2013-07-25 00:57:00,75.1,69.2,29.78,South,181,0.0,0.0,82,0.00,,---,0.00,VWS V14.01,2013-07-25 04:57:00,
2013-07-25 01:00:00,75.4,70.2,29.78,NE,51,0.0,0.0,84,0.00,,---,0.00,VWS V14.01,2013-07-25 05:00:00,
2013-07-25 01:02:00,75.1,69.2,29.78,SSE,158,0.0,0.0,82,0.00,,---,0.00,VWS V14.01,2013-07-25 05:02:00,
2013-07-25 01:05:00,75.4,69.9,29.78,NE,48,0.0,0.0,83,0.00,,---,0.00,VWS V14.01,2013-07-25 05:05:00,
2013-07-25 01:07:00,75.1,69.2,29.78,ESE,110,0.0,2.0,82,0.00,,---,0.00,VWS V14.01,2013-07-25 05:07:00,
2013-07-25 01:10:00,75.4,69.5,29.78,NE,48,0.0,0.0,82,0.00,,---,0.00,VWS V14.01,2013-07-25 05:10:00,
2013-07-25 01:12:00,75.1,69.6,29.78,ESE,104,0.0,0.0,83,0.00,,---,0.00,VWS V14.01,2013-07-25 05:12:00,
2013-07-25 01:15:00,75.4,69.5,29.78,NE,48,0.0,0.0,82,0.00,,---,0.00,VWS V14.01,2013-07-25 05:15:00,
2013-07-25 01:17:00,75.1,69.6,29.78,SSW,212,0.0,0.0,83,0.00,,---,0.00,VWS V14.01,2013-07-25 05:17:00,
2013-07-25 01:20:00,75.6,69.7,29.78,NE,48,0.0,0.0,82,0.00,,---,0.00,VWS V14.01,2013-07-25 05:20:00,
2013-07-25 01:22:00,74.9,69.7,29.78,ESE,110,2.0,5.0,84,0.00,,---,0.00,VWS V14.01,2013-07-25 05:22:00,
2013-07-25 01:25:00,75.4,69.2,29.78,NE,48,0.0,0.0,81,0.00,,---,0.00,VWS V14.01,2013-07-25 05:25:00,
2013-07-25 01:27:00,74.7,69.6,29.78,SE,145,0.0,0.0,84,0.00,,---,0.00,VWS V14.01,2013-07-25 05:27:00,
2013-07-25 01:30:00,75.3,69.1,29.78,NE,48,0.0,0.0,81,0.00,,---,0.00,VWS V14.01,2013-07-25 05:30:00,
2013-07-25 01:32:00,74.7,69.6,29.78,ESE,116,0.0,0.0,84,0.00,,---,0.00,VWS V14.01,2013-07-25 05:32:00,
2013-07-25 01:35:00,75.3,69.1,29.78,NE,48,0.0,0.0,81,0.00,,---,0.00,VWS V14.01,2013-07-25 05:35:00,
2013-07-25 01:37:00,74.6,69.1,29.78,SE,127,0.0,0.0,83,0.00,,---,0.00,VWS V14.01,2013-07-25 05:37:00,
2013-07-25 01:40:00,75.3,69.1,29.78,NE,48,0.0,0.0,81,0.00,,---,0.00,VWS V14.01,2013-07-25 05:40:00,
2013-07-25 01:42:00,74.6,69.1,29.78,SE,127,0.0,0.0,83,0.00,,---,0.00,VWS V14.01,2013-07-25 05:42:00,
2013-07-25 01:45:00,75.3,69.1,29.78,ENE,72,0.0,2.0,81,0.00,,---,0.00,VWS V14.01,2013-07-25 05:45:00,
2013-07-25 01:47:00,74.6,69.4,29.78,SE,127,0.0,2.0,84,0.00,,---,0.00,VWS V14.01,2013-07-25 05:47:00,
2013-07-25 01:50:00,75.3,69.1,29.78,ENE,75,0.0,0.0,81,0.00,,---,0.00,VWS V14.01,2013-07-25 05:50:00,
2013-07-25 01:52:00,74.4,68.9,29.78,SE,128,0.0,0.0,83,0.00,,---,0.00,VWS V14.01,2013-07-25 05:52:00,
2013-07-25 01:55:00,75.1,69.2,29.78,South,181,0.0,2.0,82,0.00,,---,0.00,VWS V14.01,2013-07-25 05:55:00,
2013-07-25 01:57:00,74.4,69.3,29.78,SE,128,0.0,0.0,84,0.00,,---,0.00,VWS V14.01,2013-07-25 05:57:00,
2013-07-25 02:00:00,75.1,69.2,29.78,SSE,158,0.0,0.0,82,0.00,,---,0.00,VWS V14.01,2013-07-25 06:00:00,
2013-07-25 02:02:00,74.4,69.3,29.77,SE,128,0.0,0.0,84,0.00,,---,0.00,VWS V14.01,2013-07-25 06:02:00,
2013-07-25 02:05:00,75.1,69.2,29.78,ESE,113,2.0,5.0,82,0.00,,---,0.00,VWS V14.01,2013-07-25 06:05:00,
2013-07-25 02:07:00,74.2,69.4,29.77,SE,128,0.0,0.0,85,0.00,,---,0.00,VWS V14.01,2013-07-25 06:07:00,
2013-07-25 02:10:00,75.1,69.6,29.78,ESE,104,0.0,5.0,83,0.00,,---,0.00,VWS V14.01,2013-07-25 06:10:00,
2013-07-25 02:12:00,74.2,69.4,29.77,SE,128,0.0,0.0,85,0.00,,---,0.00,VWS V14.01,2013-07-25 06:12:00,
2013-07-25 02:15:00,75.1,69.6,29.78,SSW,212,0.0,0.0,83,0.00,,---,0.00,VWS V14.01,2013-07-25 06:15:00,
2013-07-25 02:17:00,74.0,69.2,29.77,SE,128,0.0,0.0,85,0.00,,---,0.00,VWS V14.01,2013-07-25 06:17:00,
2013-07-25 02:20:00,74.9,69.7,29.78,ESE,107,1.0,1.0,84,0.00,,---,0.00,VWS V14.01,2013-07-25 06:20:00,
2013-07-25 02:22:00,74.2,69.4,29.77,SE,128,0.0,0.0,85,0.00,,---,0.00,VWS V14.01,2013-07-25 06:22:00,
2013-07-25 02:25:00,74.7,69.6,29.78,SE,145,0.0,5.0,84,0.00,,---,0.00,VWS V14.01,2013-07-25 06:25:00,
2013-07-25 02:27:00,74.2,69.4,29.77,SE,128,0.0,0.0,85,0.00,,---,0.00,VWS V14.01,2013-07-25 06:27:00,
2013-07-25 02:30:00,74.7,69.6,29.78,ESE,116,0.0,3.0,84,0.00,,---,0.00,VWS V14.01,2013-07-25 06:30:00,
2013-07-25 02:32:00,74.2,69.4,29.77,SE,128,0.0,0.0,85,0.00,,---,0.00,VWS V14.01,2013-07-25 06:32:00,
2013-07-25 02:37:00,74.2,69.4,29.77,SE,128,0.0,0.0,85,0.00,,---,0.00,VWS V14.01,2013-07-25 06:37:00,
2013-07-25 02:40:00,74.6,69.1,29.78,SE,127,0.0,0.0,83,0.00,,---,0.00,VWS V14.01,2013-07-25 06:40:00,
2013-07-25 02:42:00,74.2,69.4,29.77,SE,128,0.0,0.0,85,0.00,,---,0.00,VWS V14.01,2013-07-25 06:42:00,
2013-07-25 02:45:00,74.6,69.4,29.78,SE,127,0.0,0.0,84,0.00,,---,0.00,VWS V14.01,2013-07-25 06:45:00,
2013-07-25 02:47:00,74.4,69.6,29.77,SE,128,0.0,0.0,85,0.00,,---,0.00,VWS V14.01,2013-07-25 06:47:00,
2013-07-25 02:50:00,74.4,68.9,29.78,SE,128,0.0,2.0,83,0.00,,---,0.00,VWS V14.01,2013-07-25 06:50:00,
2013-07-25 02:52:00,74.4,69.6,29.77,SE,128,0.0,0.0,85,0.00,,---,0.00,VWS V14.01,2013-07-25 06:52:00,
2013-07-25 02:55:00,74.4,69.2,29.78,SE,128,0.0,0.0,84,0.00,,---,0.00,VWS V14.01,2013-07-25 06:55:00,
2013-07-25 02:57:00,74.2,69.4,29.77,SE,128,0.0,0.0,85,0.00,,---,0.00,VWS V14.01,2013-07-25 06:57:00,
2013-07-25 03:00:00,74.4,69.2,29.77,SE,128,0.0,0.0,84,0.00,,---,0.00,VWS V14.01,2013-07-25 07:00:00,
2013-07-25 03:02:00,74.2,69.4,29.77,SE,128,0.0,0.0,85,0.00,,---,0.00,VWS V14.01,2013-07-25 07:02:00,
2013-07-25 03:05:00,74.2,69.4,29.77,SE,128,0.0,0.0,85,0.00,,---,0.00,VWS V14.01,2013-07-25 07:05:00,
2013-07-25 03:07:00,74.0,69.2,29.77,SE,128,0.0,0.0,85,0.00,,---,0.00,VWS V14.01,2013-07-25 07:07:00,
2013-07-25 03:10:00,74.2,69.4,29.77,SE,128,0.0,0.0,85,0.00,,---,0.00,VWS V14.01,2013-07-25 07:10:00,
2013-07-25 03:12:00,74.0,69.6,29.77,SE,128,0.0,0.0,86,0.00,,---,0.00,VWS V14.01,2013-07-25 07:12:00,
2013-07-25 03:15:00,74.0,69.2,29.77,SE,128,0.0,0.0,85,0.00,,---,0.00,VWS V14.01,2013-07-25 07:15:00,
2013-07-25 03:17:00,74.0,69.9,29.76,SE,128,0.0,0.0,87,0.00,,---,0.00,VWS V14.01,2013-07-25 07:17:00,
2013-07-25 03:20:00,74.2,69.4,29.77,SE,128,0.0,0.0,85,0.00,,---,0.00,VWS V14.01,2013-07-25 07:20:00,
2013-07-25 03:22:00,73.7,69.3,29.76,ENE,58,0.0,0.0,86,0.00,,---,0.00,VWS V14.01,2013-07-25 07:22:00,
2013-07-25 03:25:00,74.2,69.4,29.77,SE,128,0.0,0.0,85,0.00,,---,0.00,VWS V14.01,2013-07-25 07:25:00,
2013-07-25 03:27:00,73.5,69.1,29.76,ENE,58,0.0,0.0,86,0.00,,---,0.00,VWS V14.01,2013-07-25 07:27:00,
2013-07-25 03:30:00,74.2,69.4,29.77,SE,128,0.0,0.0,85,0.00,,---,0.00,VWS V14.01,2013-07-25 07:30:00,
2013-07-25 03:32:00,73.3,69.2,29.76,NE,37,0.0,0.0,87,0.00,,---,0.00,VWS V14.01,2013-07-25 07:32:00,
2013-07-25 03:35:00,74.2,69.4,29.77,SE,128,0.0,0.0,85,0.00,,---,0.00,VWS V14.01,2013-07-25 07:35:00,
2013-07-25 03:37:00,73.3,69.2,29.76,NNE,27,1.0,1.0,87,0.00,,---,0.00,VWS V14.01,2013-07-25 07:37:00,
2013-07-25 03:40:00,74.2,69.4,29.77,SE,128,0.0,0.0,85,0.00,,---,0.00,VWS V14.01,2013-07-25 07:40:00,
2013-07-25 03:42:00,73.0,68.6,29.76,North,0,0.0,0.0,86,0.00,,---,0.00,VWS V14.01,2013-07-25 07:42:00,
2013-07-25 03:45:00,74.4,69.6,29.77,SE,128,0.0,0.0,85,0.00,,---,0.00,VWS V14.01,2013-07-25 07:45:00,
2013-07-25 03:47:00,73.0,68.6,29.75,ENE,69,0.0,6.0,86,0.00,,---,0.00,VWS V14.01,2013-07-25 07:47:00,
2013-07-25 03:50:00,74.4,69.6,29.77,SE,128,0.0,0.0,85,0.00,,---,0.00,VWS V14.01,2013-07-25 07:50:00,
2013-07-25 03:52:00,72.8,68.0,29.75,North,356,0.0,0.0,85,0.00,,---,0.00,VWS V14.01,2013-07-25 07:52:00,
2013-07-25 03:55:00,74.2,69.8,29.77,SE,128,0.0,0.0,86,0.00,,---,0.00,VWS V14.01,2013-07-25 07:55:00,
2013-07-25 03:57:00,72.7,67.9,29.75,NNW,346,1.0,3.0,85,0.00,,---,0.00,VWS V14.01,2013-07-25 07:57:00,
2013-07-25 04:00:00,74.2,69.4,29.77,SE,128,0.0,0.0,85,0.00,,---,0.00,VWS V14.01,2013-07-25 08:00:00,
2013-07-25 04:02:00,72.5,67.7,29.75,NNE,21,0.0,0.0,85,0.00,,---,0.00,VWS V14.01,2013-07-25 08:02:00,
2013-07-25 04:05:00,74.0,69.2,29.77,SE,128,0.0,0.0,85,0.00,,---,0.00,VWS V14.01,2013-07-25 08:05:00,
2013-07-25 04:07:00,72.5,67.7,29.75,NE,35,0.0,0.0,85,0.00,,---,0.00,VWS V14.01,2013-07-25 08:07:00,
2013-07-25 04:10:00,74.0,69.6,29.77,SE,128,0.0,0.0,86,0.00,,---,0.00,VWS V14.01,2013-07-25 08:10:00,
2013-07-25 04:12:00,72.3,67.5,29.75,NW,312,0.0,0.0,85,0.00,,---,0.00,VWS V14.01,2013-07-25 08:12:00,
2013-07-25 04:15:00,74.0,69.9,29.76,SE,128,0.0,0.0,87,0.00,,---,0.00,VWS V14.01,2013-07-25 08:15:00,
2013-07-25 04:17:00,72.1,67.3,29.75,North,0,0.0,0.0,85,0.00,,---,0.00,VWS V14.01,2013-07-25 08:17:00,
2013-07-25 04:20:00,73.9,69.4,29.76,ENE,58,0.0,0.0,86,0.00,,---,0.00,VWS V14.01,2013-07-25 08:20:00,
2013-07-25 04:22:00,72.0,67.9,29.75,NNW,328,0.0,0.0,87,0.00,,---,0.00,VWS V14.01,2013-07-25 08:22:00,
2013-07-25 04:25:00,73.5,69.1,29.76,ENE,58,0.0,0.0,86,0.00,,---,0.00,VWS V14.01,2013-07-25 08:25:00,
2013-07-25 04:27:00,71.8,68.1,29.75,NNW,328,0.0,0.0,88,0.00,,---,0.00,VWS V14.01,2013-07-25 08:27:00,
2013-07-25 04:30:00,73.3,69.2,29.76,NE,37,0.0,1.0,87,0.00,,---,0.00,VWS V14.01,2013-07-25 08:30:00,
2013-07-25 04:32:00,71.6,67.9,29.76,NNW,335,0.0,0.0,88,0.00,,---,0.00,VWS V14.01,2013-07-25 08:32:00,
2013-07-25 04:35:00,73.3,69.2,29.76,NNE,27,0.0,0.0,87,0.00,,---,0.00,VWS V14.01,2013-07-25 08:35:00,
2013-07-25 04:37:00,71.5,67.8,29.76,NW,313,0.0,0.0,88,0.00,,---,0.00,VWS V14.01,2013-07-25 08:37:00,
2013-07-25 04:40:00,73.0,68.9,29.76,North,0,0.0,6.0,87,0.00,,---,0.00,VWS V14.01,2013-07-25 08:40:00,
2013-07-25 04:42:00,71.5,67.8,29.76,ENE,62,0.0,0.0,88,0.00,,---,0.00,VWS V14.01,2013-07-25 08:42:00,
2013-07-25 04:45:00,73.0,68.6,29.75,NNW,332,0.0,2.0,86,0.00,,---,0.00,VWS V14.01,2013-07-25 08:45:00,
2013-07-25 04:47:00,71.3,67.6,29.77,ENE,62,0.0,0.0,88,0.00,,---,0.00,VWS V14.01,2013-07-25 08:47:00,
2013-07-25 04:50:00,72.8,68.0,29.75,North,356,0.0,6.0,85,0.00,,---,0.00,VWS V14.01,2013-07-25 08:50:00,
2013-07-25 04:52:00,71.3,68.2,29.77,ENE,62,0.0,0.0,90,0.00,,---,0.00,VWS V14.01,2013-07-25 08:52:00,
2013-07-25 04:55:00,72.7,67.9,29.75,NNW,337,0.0,2.0,85,0.00,,---,0.00,VWS V14.01,2013-07-25 08:55:00,
2013-07-25 04:57:00,71.1,68.0,29.77,East,99,2.0,2.0,90,0.00,,---,0.00,VWS V14.01,2013-07-25 08:57:00,
2013-07-25 05:00:00,72.5,67.7,29.75,NNE,21,0.0,3.0,85,0.00,,---,0.00,VWS V14.01,2013-07-25 09:00:00,
2013-07-25 05:02:00,70.9,68.2,29.77,NNE,17,0.0,0.0,91,0.01,,---,0.01,VWS V14.01,2013-07-25 09:02:00,
2013-07-25 05:05:00,72.5,67.7,29.75,NE,35,0.0,0.0,85,0.00,,---,0.00,VWS V14.01,2013-07-25 09:05:00,
2013-07-25 05:07:00,70.8,68.4,29.77,NNW,335,0.0,0.0,92,0.01,,---,0.01,VWS V14.01,2013-07-25 09:07:00,
2013-07-25 05:10:00,72.3,67.5,29.75,NW,312,0.0,1.0,85,0.00,,---,0.00,VWS V14.01,2013-07-25 09:10:00,
2013-07-25 05:12:00,70.6,68.2,29.77,NNW,332,0.0,1.0,92,0.01,,---,0.01,VWS V14.01,2013-07-25 09:12:00,
2013-07-25 05:15:00,72.1,67.3,29.75,North,0,0.0,0.0,85,0.00,,---,0.00,VWS V14.01,2013-07-25 09:15:00,
2013-07-25 05:17:00,70.6,68.5,29.77,North,354,0.0,0.0,93,0.02,,---,0.02,VWS V14.01,2013-07-25 09:17:00,
2013-07-25 05:20:00,72.0,67.9,29.75,NNW,329,0.0,3.0,87,0.00,,---,0.00,VWS V14.01,2013-07-25 09:20:00,
2013-07-25 05:22:00,70.4,68.6,29.77,NW,325,0.0,0.0,94,0.02,,---,0.02,VWS V14.01,2013-07-25 09:22:00,
2013-07-25 05:25:00,71.8,68.1,29.75,NNW,328,0.0,0.0,88,0.00,,---,0.00,VWS V14.01,2013-07-25 09:25:00,
2013-07-25 05:27:00,70.4,68.6,29.77,NW,325,0.0,0.0,94,0.02,,---,0.02,VWS V14.01,2013-07-25 09:27:00,
2013-07-25 05:30:00,71.6,67.9,29.76,NNW,333,0.0,2.0,88,0.00,,---,0.00,VWS V14.01,2013-07-25 09:30:00,
2013-07-25 05:32:00,70.4,68.6,29.77,NW,319,0.0,0.0,94,0.02,,---,0.02,VWS V14.01,2013-07-25 09:32:00,
2013-07-25 05:35:00,71.5,67.8,29.76,NW,313,0.0,1.0,88,0.00,,---,0.00,VWS V14.01,2013-07-25 09:35:00,
2013-07-25 05:37:00,70.3,68.5,29.77,North,359,0.0,0.0,94,0.02,,---,0.02,VWS V14.01,2013-07-25 09:37:00,
2013-07-25 05:40:00,71.5,67.8,29.76,ENE,62,0.0,3.0,88,0.00,,---,0.00,VWS V14.01,2013-07-25 09:40:00,
2013-07-25 05:42:00,70.3,68.5,29.77,NE,49,0.0,0.0,94,0.02,,---,0.02,VWS V14.01,2013-07-25 09:42:00,
2013-07-25 05:45:00,71.3,67.6,29.77,ENE,62,0.0,0.0,88,0.00,,---,0.00,VWS V14.01,2013-07-25 09:45:00,
2013-07-25 05:47:00,70.3,68.8,29.77,NW,323,0.0,3.0,95,0.02,,---,0.02,VWS V14.01,2013-07-25 09:47:00,
2013-07-25 05:50:00,71.3,67.9,29.77,ENE,62,0.0,0.0,89,0.00,,---,0.00,VWS V14.01,2013-07-25 09:50:00,
2013-07-25 05:52:00,70.3,68.5,29.77,NNW,343,0.0,0.0,94,0.02,,---,0.02,VWS V14.01,2013-07-25 09:52:00,
2013-07-25 05:55:00,71.1,68.0,29.77,North,0,0.0,1.0,90,0.00,,---,0.00,VWS V14.01,2013-07-25 09:55:00,
2013-07-25 05:57:00,70.1,68.6,29.77,NE,51,0.0,0.0,95,0.02,,---,0.02,VWS V14.01,2013-07-25 09:57:00,
2013-07-25 06:00:00,70.9,68.2,29.77,NNE,17,0.0,2.0,91,0.01,,---,0.01,VWS V14.01,2013-07-25 10:00:00,
2013-07-25 06:02:00,70.1,68.6,29.78,NW,326,0.0,2.0,95,0.01,,---,0.02,VWS V14.01,2013-07-25 10:02:00,
2013-07-25 06:05:00,70.8,68.4,29.77,NNW,335,0.0,0.0,92,0.01,,---,0.01,VWS V14.01,2013-07-25 10:05:00,
2013-07-25 06:07:00,70.1,68.6,29.78,West,277,0.0,0.0,95,0.01,,---,0.02,VWS V14.01,2013-07-25 10:07:00,
2013-07-25 06:10:00,70.6,68.2,29.77,NNW,332,1.0,1.0,92,0.01,,---,0.01,VWS V14.01,2013-07-25 10:10:00,
2013-07-25 06:12:00,70.1,68.6,29.78,NNW,344,0.0,0.0,95,0.01,,---,0.02,VWS V14.01,2013-07-25 10:12:00,
2013-07-25 06:15:00,70.6,68.5,29.77,North,359,0.0,1.0,93,0.02,,---,0.02,VWS V14.01,2013-07-25 10:15:00,
2013-07-25 06:17:00,70.1,68.6,29.78,NE,42,0.0,1.0,95,0.00,,---,0.02,VWS V14.01,2013-07-25 10:17:00,
2013-07-25 06:20:00,70.4,68.3,29.77,NW,325,0.0,0.0,93,0.02,,---,0.02,VWS V14.01,2013-07-25 10:20:00,
2013-07-25 06:22:00,70.1,68.6,29.78,NE,42,0.0,0.0,95,0.00,,---,0.02,VWS V14.01,2013-07-25 10:22:00,
2013-07-25 06:25:00,70.4,68.6,29.77,NW,325,0.0,0.0,94,0.02,,---,0.02,VWS V14.01,2013-07-25 10:25:00,
2013-07-25 06:27:00,69.9,68.4,29.78,North,0,0.0,0.0,95,0.00,,---,0.02,VWS V14.01,2013-07-25 10:27:00,
2013-07-25 06:30:00,70.4,68.6,29.77,NW,319,0.0,1.0,94,0.02,,---,0.02,VWS V14.01,2013-07-25 10:30:00,
2013-07-25 06:32:00,69.9,68.4,29.79,NNW,339,0.0,0.0,95,0.00,,---,0.02,VWS V14.01,2013-07-25 10:32:00,
2013-07-25 06:35:00,70.4,68.6,29.77,North,359,0.0,2.0,94,0.02,,---,0.02,VWS V14.01,2013-07-25 10:35:00,
2013-07-25 06:37:00,69.8,68.0,29.79,NNW,330,0.0,0.0,94,0.00,,---,0.02,VWS V14.01,2013-07-25 10:37:00,
2013-07-25 06:40:00,70.3,68.5,29.77,NE,49,0.0,3.0,94,0.02,,---,0.02,VWS V14.01,2013-07-25 10:40:00,
2013-07-25 06:42:00,69.6,67.8,29.79,NNW,330,0.0,0.0,94,0.00,,---,0.02,VWS V14.01,2013-07-25 10:42:00,
2013-07-25 06:45:00,70.4,68.9,29.77,NW,320,3.0,3.0,95,0.02,,---,0.02,VWS V14.01,2013-07-25 10:45:00,
2013-07-25 06:47:00,69.6,67.8,29.80,NW,318,0.0,0.0,94,0.00,,---,0.02,VWS V14.01,2013-07-25 10:47:00,
2013-07-25 06:50:00,70.3,68.5,29.77,NNW,343,0.0,3.0,94,0.02,,---,0.02,VWS V14.01,2013-07-25 10:50:00,
2013-07-25 06:52:00,69.6,67.5,29.80,NW,318,0.0,0.0,93,0.00,,---,0.02,VWS V14.01,2013-07-25 10:52:00,
2013-07-25 06:55:00,70.1,68.6,29.77,WNW,288,0.0,2.0,95,0.02,,---,0.02,VWS V14.01,2013-07-25 10:55:00,
2013-07-25 06:57:00,69.4,67.3,29.80,NW,318,0.0,0.0,93,0.00,,---,0.02,VWS V14.01,2013-07-25 10:57:00,
2013-07-25 07:00:00,70.1,68.6,29.78,NNE,13,0.0,2.0,95,0.02,,---,0.02,VWS V14.01,2013-07-25 11:00:00,
2013-07-25 07:02:00,69.4,67.3,29.80,NW,318,0.0,0.0,93,0.00,,---,0.02,VWS V14.01,2013-07-25 11:02:00,
2013-07-25 07:05:00,70.1,68.6,29.78,West,277,0.0,2.0,95,0.01,,---,0.02,VWS V14.01,2013-07-25 11:05:00,
2013-07-25 07:07:00,69.3,67.2,29.80,NW,315,0.0,0.0,93,0.00,,---,0.02,VWS V14.01,2013-07-25 11:07:00,
2013-07-25 07:10:00,70.1,68.6,29.78,NNW,344,0.0,1.0,95,0.01,,---,0.02,VWS V14.01,2013-07-25 11:10:00,
2013-07-25 07:12:00,69.3,66.9,29.80,NNW,342,3.0,3.0,92,0.00,,---,0.02,VWS V14.01,2013-07-25 11:12:00,
2013-07-25 07:15:00,70.1,68.6,29.78,NE,42,1.0,3.0,95,0.01,,---,0.02,VWS V14.01,2013-07-25 11:15:00,
2013-07-25 07:17:00,69.3,66.9,29.80,East,85,0.0,0.0,92,0.00,,---,0.02,VWS V14.01,2013-07-25 11:17:00,
2013-07-25 07:20:00,70.1,68.6,29.78,NE,42,0.0,1.0,95,0.00,,---,0.02,VWS V14.01,2013-07-25 11:20:00,
2013-07-25 07:22:00,69.3,66.9,29.80,North,0,2.0,2.0,92,0.00,,---,0.02,VWS V14.01,2013-07-25 11:22:00,
2013-07-25 07:25:00,69.9,68.4,29.78,NW,316,0.0,2.0,95,0.00,,---,0.02,VWS V14.01,2013-07-25 11:25:00,
2013-07-25 07:27:00,69.3,66.9,29.80,North,6,0.0,0.0,92,0.00,,---,0.02,VWS V14.01,2013-07-25 11:27:00,
2013-07-25 07:30:00,69.9,68.4,29.79,North,0,0.0,0.0,95,0.00,,---,0.02,VWS V14.01,2013-07-25 11:30:00,
2013-07-25 07:32:00,69.1,66.7,29.80,NW,315,0.0,0.0,92,0.00,,---,0.02,VWS V14.01,2013-07-25 11:32:00,
2013-07-25 07:35:00,69.8,68.0,29.79,NNW,330,0.0,1.0,94,0.00,,---,0.02,VWS V14.01,2013-07-25 11:35:00,
2013-07-25 07:37:00,69.1,66.4,29.80,NW,315,0.0,0.0,91,0.00,,---,0.02,VWS V14.01,2013-07-25 11:37:00,
2013-07-25 07:40:00,69.6,67.8,29.79,NNW,330,0.0,0.0,94,0.00,,---,0.02,VWS V14.01,2013-07-25 11:40:00,
2013-07-25 07:42:00,69.3,66.9,29.80,NW,315,0.0,0.0,92,0.00,,---,0.02,VWS V14.01,2013-07-25 11:42:00,
2013-07-25 07:45:00,69.6,67.8,29.80,NW,318,0.0,0.0,94,0.00,,---,0.02,VWS V14.01,2013-07-25 11:45:00,
2013-07-25 07:47:00,69.3,66.9,29.82,NW,315,0.0,0.0,92,0.00,,---,0.02,VWS V14.01,2013-07-25 11:47:00,
2013-07-25 07:50:00,69.6,67.8,29.80,NW,318,0.0,0.0,94,0.00,,---,0.02,VWS V14.01,2013-07-25 11:50:00,
2013-07-25 07:52:00,69.3,66.6,29.82,NW,315,0.0,0.0,91,0.00,,---,0.02,VWS V14.01,2013-07-25 11:52:00,
2013-07-25 07:55:00,69.4,67.3,29.80,NW,318,0.0,0.0,93,0.00,,---,0.02,VWS V14.01,2013-07-25 11:55:00,
2013-07-25 07:57:00,69.3,66.2,29.82,NW,315,0.0,0.0,90,0.00,,---,0.02,VWS V14.01,2013-07-25 11:57:00,
2013-07-25 08:00:00,69.4,67.3,29.80,NW,318,0.0,0.0,93,0.00,,---,0.02,VWS V14.01,2013-07-25 12:00:00,
2013-07-25 08:02:00,69.4,66.3,29.82,North,0,0.0,0.0,90,0.00,,---,0.02,VWS V14.01,2013-07-25 12:02:00,
2013-07-25 08:05:00,69.3,67.2,29.80,NW,315,0.0,0.0,93,0.00,,---,0.02,VWS V14.01,2013-07-25 12:05:00,
2013-07-25 08:07:00,69.4,66.3,29.82,North,0,0.0,0.0,90,0.00,,---,0.02,VWS V14.01,2013-07-25 12:07:00,
2013-07-25 08:10:00,69.3,66.9,29.80,ENE,72,0.0,1.0,92,0.00,,---,0.02,VWS V14.01,2013-07-25 12:10:00,
2013-07-25 08:12:00,69.4,66.7,29.82,North,0,0.0,0.0,91,0.00,,---,0.02,VWS V14.01,2013-07-25 12:12:00,
2013-07-25 08:15:00,69.3,66.9,29.80,East,85,0.0,3.0,92,0.00,,---,0.02,VWS V14.01,2013-07-25 12:15:00,
2013-07-25 08:17:00,69.3,66.2,29.83,North,0,0.0,0.0,90,0.00,,---,0.02,VWS V14.01,2013-07-25 12:17:00,
2013-07-25 08:20:00,69.3,66.9,29.80,East,85,0.0,0.0,92,0.00,,---,0.02,VWS V14.01,2013-07-25 12:20:00,
2013-07-25 08:22:00,69.3,65.9,29.83,NW,319,0.0,0.0,89,0.00,,---,0.02,VWS V14.01,2013-07-25 12:22:00,
2013-07-25 08:25:00,69.3,66.9,29.80,North,6,0.0,2.0,92,0.00,,---,0.02,VWS V14.01,2013-07-25 12:25:00,
2013-07-25 08:27:00,69.1,65.7,29.83,NNW,344,0.0,0.0,89,0.00,,---,0.02,VWS V14.01,2013-07-25 12:27:00,
2013-07-25 08:30:00,69.1,66.7,29.80,NW,315,0.0,1.0,92,0.00,,---,0.02,VWS V14.01,2013-07-25 12:30:00,
2013-07-25 08:32:00,69.3,66.2,29.83,NNW,344,0.0,0.0,90,0.00,,---,0.02,VWS V14.01,2013-07-25 12:32:00,
2013-07-25 08:35:00,69.1,66.4,29.80,NW,315,0.0,0.0,91,0.00,,---,0.02,VWS V14.01,2013-07-25 12:35:00,
2013-07-25 08:37:00,69.4,66.3,29.83,NNW,344,0.0,0.0,90,0.00,,---,0.02,VWS V14.01,2013-07-25 12:37:00,
2013-07-25 08:40:00,69.3,66.9,29.80,NW,315,0.0,0.0,92,0.00,,---,0.02,VWS V14.01,2013-07-25 12:40:00,
2013-07-25 08:42:00,69.4,66.3,29.83,NNW,344,0.0,0.0,90,0.00,,---,0.02,VWS V14.01,2013-07-25 12:42:00,
2013-07-25 08:45:00,69.4,67.0,29.82,NW,315,0.0,0.0,92,0.00,,---,0.02,VWS V14.01,2013-07-25 12:45:00,
2013-07-25 08:47:00,69.4,66.0,29.83,WNW,302,0.0,0.0,89,0.00,,---,0.02,VWS V14.01,2013-07-25 12:47:00,
2013-07-25 08:50:00,69.3,66.6,29.82,NW,315,0.0,0.0,91,0.00,,---,0.02,VWS V14.01,2013-07-25 12:50:00,
2013-07-25 08:52:00,69.4,65.7,29.83,North,350,0.0,0.0,88,0.00,,---,0.02,VWS V14.01,2013-07-25 12:52:00,
2013-07-25 08:55:00,69.3,66.2,29.82,NW,315,0.0,0.0,90,0.00,,---,0.02,VWS V14.01,2013-07-25 12:55:00,
2013-07-25 08:57:00,69.4,65.4,29.83,WNW,287,0.0,0.0,87,0.00,,---,0.02,VWS V14.01,2013-07-25 12:57:00,
2013-07-25 09:00:00,69.4,66.7,29.82,North,0,0.0,1.0,91,0.00,,---,0.02,VWS V14.01,2013-07-25 13:00:00,
2013-07-25 09:02:00,69.6,65.6,29.84,WNW,295,0.0,0.0,87,0.00,,---,0.02,VWS V14.01,2013-07-25 13:02:00,
2013-07-25 09:05:00,69.4,66.3,29.82,North,0,0.0,0.0,90,0.00,,---,0.02,VWS V14.01,2013-07-25 13:05:00,
2013-07-25 09:07:00,69.6,65.2,29.84,NW,325,0.0,2.0,86,0.00,,---,0.02,VWS V14.01,2013-07-25 13:07:00,
2013-07-25 09:10:00,69.4,66.3,29.82,North,0,0.0,0.0,90,0.00,,---,0.02,VWS V14.01,2013-07-25 13:10:00,
2013-07-25 09:12:00,69.8,65.8,29.84,NNE,23,0.0,0.0,87,0.00,,---,0.02,VWS V14.01,2013-07-25 13:12:00,
2013-07-25 09:15:00,69.3,66.2,29.83,North,0,0.0,1.0,90,0.00,,---,0.02,VWS V14.01,2013-07-25 13:15:00,
2013-07-25 09:17:00,70.1,66.1,29.85,NW,318,0.0,0.0,87,0.00,,---,0.02,VWS V14.01,2013-07-25 13:17:00,
2013-07-25 09:20:00,69.3,65.9,29.83,NW,319,0.0,0.0,89,0.00,,---,0.02,VWS V14.01,2013-07-25 13:20:00,
2013-07-25 09:22:00,70.4,66.3,29.85,NNE,31,0.0,0.0,87,0.00,,---,0.02,VWS V14.01,2013-07-25 13:22:00,
2013-07-25 09:25:00,69.3,66.2,29.83,North,0,0.0,3.0,90,0.00,,---,0.02,VWS V14.01,2013-07-25 13:25:00,
2013-07-25 09:27:00,70.8,66.4,29.85,NNW,336,0.0,0.0,86,0.00,,---,0.02,VWS V14.01,2013-07-25 13:27:00,
2013-07-25 09:30:00,69.3,66.2,29.83,NNW,344,0.0,0.0,90,0.00,,---,0.02,VWS V14.01,2013-07-25 13:30:00,
2013-07-25 09:32:00,70.8,66.1,29.85,ENE,73,0.0,2.0,85,0.00,,---,0.02,VWS V14.01,2013-07-25 13:32:00,
2013-07-25 09:35:00,69.3,66.2,29.83,NNW,344,0.0,0.0,90,0.00,,---,0.02,VWS V14.01,2013-07-25 13:35:00,
2013-07-25 09:37:00,70.6,65.9,29.85,NNE,21,0.0,0.0,85,0.00,,---,0.02,VWS V14.01,2013-07-25 13:37:00,
2013-07-25 09:40:00,69.4,66.3,29.83,NNW,344,0.0,0.0,90,0.00,,---,0.02,VWS V14.01,2013-07-25 13:40:00,
2013-07-25 09:42:00,70.6,65.9,29.85,NNW,347,0.0,0.0,85,0.00,,---,0.02,VWS V14.01,2013-07-25 13:42:00,
2013-07-25 09:45:00,69.4,66.0,29.83,WNW,302,0.0,0.0,89,0.00,,---,0.02,VWS V14.01,2013-07-25 13:45:00,
2013-07-25 09:47:00,70.4,65.7,29.85,NNW,347,0.0,0.0,85,0.00,,---,0.02,VWS V14.01,2013-07-25 13:47:00,
2013-07-25 09:50:00,69.4,65.7,29.83,North,350,0.0,1.0,88,0.00,,---,0.02,VWS V14.01,2013-07-25 13:50:00,
2013-07-25 09:52:00,70.4,65.7,29.85,North,0,0.0,0.0,85,0.00,,---,0.02,VWS V14.01,2013-07-25 13:52:00,
2013-07-25 09:55:00,69.4,65.7,29.83,NNW,340,0.0,2.0,88,0.00,,---,0.02,VWS V14.01,2013-07-25 13:55:00,
2013-07-25 09:57:00,70.3,65.6,29.85,NNW,332,0.0,0.0,85,0.00,,---,0.02,VWS V14.01,2013-07-25 13:57:00,
2013-07-25 10:00:00,69.6,65.6,29.84,WNW,287,0.0,0.0,87,0.00,,---,0.02,VWS V14.01,2013-07-25 14:00:00,
2013-07-25 10:02:00,70.3,65.6,29.86,North,356,0.0,0.0,85,0.00,,---,0.02,VWS V14.01,2013-07-25 14:02:00,
2013-07-25 10:05:00,69.6,65.6,29.84,NNW,335,1.0,1.0,87,0.00,,---,0.02,VWS V14.01,2013-07-25 14:05:00,
2013-07-25 10:07:00,70.3,65.6,29.86,NNW,336,0.0,0.0,85,0.00,,---,0.02,VWS V14.01,2013-07-25 14:07:00,
2013-07-25 10:10:00,69.8,65.8,29.84,East,97,0.0,2.0,87,0.00,,---,0.02,VWS V14.01,2013-07-25 14:10:00,
2013-07-25 10:12:00,70.3,65.2,29.86,North,357,0.0,0.0,84,0.00,,---,0.02,VWS V14.01,2013-07-25 14:12:00,
2013-07-25 10:15:00,70.1,66.4,29.85,NW,318,0.0,0.0,88,0.00,,---,0.02,VWS V14.01,2013-07-25 14:15:00,
2013-07-25 10:17:00,70.4,65.3,29.86,North,0,0.0,0.0,84,0.00,,---,0.02,VWS V14.01,2013-07-25 14:17:00,
2013-07-25 10:20:00,70.4,66.3,29.85,NNE,31,0.0,2.0,87,0.00,,---,0.02,VWS V14.01,2013-07-25 14:20:00,
2013-07-25 10:22:00,70.6,65.9,29.86,North,357,0.0,0.0,85,0.00,,---,0.02,VWS V14.01,2013-07-25 14:22:00,
2013-07-25 10:25:00,70.8,66.4,29.85,NNW,329,0.0,0.0,86,0.00,,---,0.02,VWS V14.01,2013-07-25 14:25:00,
2013-07-25 10:27:00,70.8,66.1,29.86,North,11,0.0,0.0,85,0.00,,---,0.02,VWS V14.01,2013-07-25 14:27:00,
2013-07-25 10:30:00,70.8,66.1,29.85,NNW,336,0.0,0.0,85,0.00,,---,0.02,VWS V14.01,2013-07-25 14:30:00,
2013-07-25 10:32:00,70.9,66.2,29.86,NNE,13,0.0,0.0,85,0.00,,---,0.02,VWS V14.01,2013-07-25 14:32:00,
2013-07-25 10:35:00,70.8,66.1,29.85,NNE,16,0.0,2.0,85,0.00,,---,0.02,VWS V14.01,2013-07-25 14:35:00,
2013-07-25 10:37:00,70.9,65.8,29.86,NNW,333,1.0,2.0,84,0.00,,---,0.02,VWS V14.01,2013-07-25 14:37:00,
2013-07-25 10:40:00,70.6,65.9,29.85,NNW,347,0.0,1.0,85,0.00,,---,0.02,VWS V14.01,2013-07-25 14:40:00,
2013-07-25 10:42:00,70.8,65.4,29.86,NNW,333,0.0,0.0,83,0.00,,---,0.02,VWS V14.01,2013-07-25 14:42:00,
2013-07-25 10:45:00,70.4,65.7,29.85,NNW,347,0.0,0.0,85,0.00,,---,0.02,VWS V14.01,2013-07-25 14:45:00,
2013-07-25 10:47:00,70.9,65.8,29.87,NNW,333,0.0,0.0,84,0.00,,---,0.02,VWS V14.01,2013-07-25 14:47:00,
2013-07-25 10:50:00,70.4,65.7,29.85,North,0,0.0,3.0,85,0.00,,---,0.02,VWS V14.01,2013-07-25 14:50:00,
2013-07-25 10:52:00,70.8,65.4,29.87,ENE,62,0.0,0.0,83,0.00,,---,0.02,VWS V14.01,2013-07-25 14:52:00,
2013-07-25 10:55:00,70.4,65.7,29.85,North,0,0.0,0.0,85,0.00,,---,0.02,VWS V14.01,2013-07-25 14:55:00,
2013-07-25 10:57:00,70.9,65.8,29.87,NNW,332,0.0,1.0,84,0.00,,---,0.02,VWS V14.01,2013-07-25 14:57:00,
2013-07-25 11:00:00,70.3,65.6,29.86,North,356,0.0,1.0,85,0.00,,---,0.02,VWS V14.01,2013-07-25 15:00:00,
2013-07-25 11:02:00,70.9,65.5,29.87,NW,315,0.0,2.0,83,0.00,,---,0.02,VWS V14.01,2013-07-25 15:02:00,
2013-07-25 11:05:00,70.3,65.6,29.86,NNW,336,0.0,2.0,85,0.00,,---,0.02,VWS V14.01,2013-07-25 15:05:00,
2013-07-25 11:07:00,70.9,65.5,29.87,North,0,0.0,0.0,83,0.00,,---,0.02,VWS V14.01,2013-07-25 15:07:00,
2013-07-25 11:10:00,70.3,65.2,29.86,North,359,0.0,2.0,84,0.00,,---,0.02,VWS V14.01,2013-07-25 15:10:00,
2013-07-25 11:12:00,70.9,65.1,29.87,NNW,329,0.0,1.0,82,0.00,,---,0.02,VWS V14.01,2013-07-25 15:12:00,
2013-07-25 11:15:00,70.4,65.3,29.86,North,0,0.0,0.0,84,0.00,,---,0.02,VWS V14.01,2013-07-25 15:15:00,
2013-07-25 11:17:00,70.9,65.5,29.88,NE,34,0.0,0.0,83,0.00,,---,0.02,VWS V14.01,2013-07-25 15:17:00,
2013-07-25 11:20:00,70.6,65.9,29.86,North,357,0.0,0.0,85,0.00,,---,0.02,VWS V14.01,2013-07-25 15:20:00,
2013-07-25 11:22:00,71.1,65.0,29.88,North,357,0.0,4.0,81,0.00,,---,0.02,VWS V14.01,2013-07-25 15:22:00,
2013-07-25 11:25:00,70.8,66.1,29.86,North,11,0.0,0.0,85,0.00,,---,0.02,VWS V14.01,2013-07-25 15:25:00,
2013-07-25 11:27:00,71.1,65.3,29.88,NNW,333,0.0,0.0,82,0.00,,---,0.02,VWS V14.01,2013-07-25 15:27:00,
2013-07-25 11:30:00,70.9,66.2,29.86,NNE,13,0.0,0.0,85,0.00,,---,0.02,VWS V14.01,2013-07-25 15:30:00,
2013-07-25 11:32:00,71.3,65.2,29.88,NE,41,0.0,0.0,81,0.00,,---,0.02,VWS V14.01,2013-07-25 15:32:00,
2013-07-25 11:35:00,70.9,65.8,29.86,North,350,0.0,3.0,84,0.00,,---,0.02,VWS V14.01,2013-07-25 15:35:00,
2013-07-25 11:37:00,71.6,65.8,29.88,North,0,0.0,0.0,82,0.00,,---,0.02,VWS V14.01,2013-07-25 15:37:00,
2013-07-25 11:40:00,70.8,65.4,29.86,NNW,333,0.0,2.0,83,0.00,,---,0.02,VWS V14.01,2013-07-25 15:40:00,
2013-07-25 11:42:00,72.0,66.2,29.88,NNE,31,0.0,1.0,82,0.00,,---,0.02,VWS V14.01,2013-07-25 15:42:00,
2013-07-25 11:45:00,70.8,65.7,29.87,NNW,333,0.0,0.0,84,0.00,,---,0.02,VWS V14.01,2013-07-25 15:45:00,
2013-07-25 11:47:00,72.3,65.8,29.88,ENE,65,0.0,2.0,80,0.00,,---,0.02,VWS V14.01,2013-07-25 15:47:00,
2013-07-25 11:50:00,70.8,65.4,29.87,NNW,346,0.0,3.0,83,0.00,,---,0.02,VWS V14.01,2013-07-25 15:50:00,
2013-07-25 11:52:00,72.5,65.6,29.88,NW,304,0.0,3.0,79,0.00,,---,0.02,VWS V14.01,2013-07-25 15:52:00,
2013-07-25 11:55:00,70.8,65.4,29.87,NW,319,0.0,4.0,83,0.00,,---,0.02,VWS V14.01,2013-07-25 15:55:00,
2013-07-25 11:57:00,72.5,66.3,29.88,NNE,21,0.0,0.0,81,0.00,,---,0.02,VWS V14.01,2013-07-25 15:57:00,
2013-07-25 12:00:00,70.9,65.8,29.87,NNW,330,0.0,1.0,84,0.00,,---,0.02,VWS V14.01,2013-07-25 16:00:00,
2013-07-25 12:02:00,72.5,66.3,29.89,North,356,0.0,0.0,81,0.00,,---,0.02,VWS V14.01,2013-07-25 16:02:00,
2013-07-25 12:05:00,70.9,65.8,29.87,North,0,0.0,6.0,84,0.00,,---,0.02,VWS V14.01,2013-07-25 16:05:00,
2013-07-25 12:07:00,72.7,66.5,29.89,NE,37,0.0,0.0,81,0.00,,---,0.02,VWS V14.01,2013-07-25 16:07:00,
2013-07-25 12:10:00,70.9,65.5,29.87,East,99,1.0,6.0,83,0.00,,---,0.02,VWS V14.01,2013-07-25 16:10:00,
2013-07-25 12:12:00,73.0,66.8,29.89,NE,37,0.0,0.0,81,0.00,,---,0.02,VWS V14.01,2013-07-25 16:12:00,
2013-07-25 12:15:00,70.9,65.5,29.88,NE,34,0.0,1.0,83,0.00,,---,0.02,VWS V14.01,2013-07-25 16:15:00,
2013-07-25 12:17:00,73.0,66.1,29.89,NNE,16,0.0,3.0,79,0.00,,---,0.02,VWS V14.01,2013-07-25 16:17:00,
2013-07-25 12:20:00,71.1,65.3,29.88,NNW,328,2.0,2.0,82,0.00,,---,0.02,VWS V14.01,2013-07-25 16:20:00,
2013-07-25 12:22:00,73.2,66.7,29.89,NW,320,1.0,3.0,80,0.00,,---,0.02,VWS V14.01,2013-07-25 16:22:00,
2013-07-25 12:25:00,71.1,65.3,29.88,NNW,333,0.0,4.0,82,0.00,,---,0.02,VWS V14.01,2013-07-25 16:25:00,
2013-07-25 12:27:00,73.5,66.6,29.89,North,0,0.0,3.0,79,0.00,,---,0.02,VWS V14.01,2013-07-25 16:27:00,
2013-07-25 12:30:00,71.3,65.5,29.88,NNE,20,0.0,3.0,82,0.00,,---,0.02,VWS V14.01,2013-07-25 16:30:00,
2013-07-25 12:32:00,73.9,66.6,29.89,North,0,0.0,1.0,78,0.00,,---,0.02,VWS V14.01,2013-07-25 16:32:00,
2013-07-25 12:35:00,71.5,65.4,29.88,NNE,14,0.0,2.0,81,0.00,,---,0.02,VWS V14.01,2013-07-25 16:35:00,
2013-07-25 12:37:00,73.9,66.2,29.89,North,354,0.0,6.0,77,0.00,,---,0.02,VWS V14.01,2013-07-25 16:37:00,
2013-07-25 12:40:00,71.8,66.4,29.88,NE,34,0.0,2.0,83,0.00,,---,0.02,VWS V14.01,2013-07-25 16:40:00,
2013-07-25 12:42:00,73.7,66.4,29.89,North,357,0.0,0.0,78,0.00,,---,0.02,VWS V14.01,2013-07-25 16:42:00,
2013-07-25 12:45:00,72.1,65.9,29.88,East,80,0.0,1.0,81,0.00,,---,0.02,VWS V14.01,2013-07-25 16:45:00,
2013-07-25 12:47:00,74.0,66.7,29.88,NNE,17,0.0,0.0,78,0.00,,---,0.02,VWS V14.01,2013-07-25 16:47:00,
2013-07-25 12:50:00,72.5,66.3,29.88,SW,234,0.0,3.0,81,0.00,,---,0.02,VWS V14.01,2013-07-25 16:50:00,
2013-07-25 12:52:00,74.2,66.5,29.88,NE,54,0.0,1.0,77,0.00,,---,0.02,VWS V14.01,2013-07-25 16:52:00,
2013-07-25 12:55:00,72.5,66.0,29.88,ENE,72,0.0,5.0,80,0.00,,---,0.02,VWS V14.01,2013-07-25 16:55:00,
2013-07-25 12:57:00,74.4,67.1,29.88,SE,141,0.0,2.0,78,0.00,,---,0.02,VWS V14.01,2013-07-25 16:57:00,
2013-07-25 13:00:00,72.5,66.3,29.89,North,357,0.0,3.0,81,0.00,,---,0.02,VWS V14.01,2013-07-25 17:00:00,
2013-07-25 13:02:00,74.6,66.5,29.88,NW,318,2.0,3.0,76,0.00,,---,0.02,VWS V14.01,2013-07-25 17:02:00,
2013-07-25 13:05:00,72.7,66.2,29.89,NE,37,0.0,2.0,80,0.00,,---,0.02,VWS V14.01,2013-07-25 17:05:00,
2013-07-25 13:07:00,74.4,66.3,29.88,NNW,342,4.0,5.0,76,0.00,,---,0.02,VWS V14.01,2013-07-25 17:07:00,
2013-07-25 13:10:00,72.8,66.6,29.89,NE,40,0.0,1.0,81,0.00,,---,0.02,VWS V14.01,2013-07-25 17:10:00,
2013-07-25 13:12:00,74.2,66.5,29.88,NW,326,0.0,0.0,77,0.00,,---,0.02,VWS V14.01,2013-07-25 17:12:00,
2013-07-25 13:15:00,73.0,66.1,29.89,North,0,0.0,5.0,79,0.00,,---,0.02,VWS V14.01,2013-07-25 17:15:00,
2013-07-25 13:17:00,74.0,67.1,29.88,NE,37,0.0,0.0,79,0.00,,---,0.02,VWS V14.01,2013-07-25 17:17:00,
2013-07-25 13:20:00,73.0,66.1,29.89,NNW,335,0.0,3.0,79,0.00,,---,0.02,VWS V14.01,2013-07-25 17:20:00,
2013-07-25 13:22:00,74.4,67.1,29.88,North,4,0.0,0.0,78,0.00,,---,0.02,VWS V14.01,2013-07-25 17:22:00,
2013-07-25 13:25:00,73.3,66.4,29.89,SE,140,0.0,3.0,79,0.00,,---,0.02,VWS V14.01,2013-07-25 17:25:00,
2013-07-25 13:27:00,74.4,66.7,29.88,North,353,0.0,1.0,77,0.00,,---,0.02,VWS V14.01,2013-07-25 17:27:00,
2013-07-25 13:30:00,73.9,66.2,29.89,NNE,17,1.0,3.0,77,0.00,,---,0.02,VWS V14.01,2013-07-25 17:30:00,
2013-07-25 13:32:00,73.9,66.6,29.88,NNW,335,0.0,1.0,78,0.00,,---,0.02,VWS V14.01,2013-07-25 17:32:00,
2013-07-25 13:35:00,74.0,66.3,29.89,North,352,0.0,6.0,77,0.00,,---,0.02,VWS V14.01,2013-07-25 17:35:00,
2013-07-25 13:37:00,73.7,66.8,29.88,NNE,20,0.0,0.0,79,0.00,,---,0.02,VWS V14.01,2013-07-25 17:37:00,
2013-07-25 13:40:00,73.7,66.1,29.89,North,356,0.0,6.0,77,0.00,,---,0.02,VWS V14.01,2013-07-25 17:40:00,
2013-07-25 13:42:00,73.7,66.8,29.88,NE,38,0.0,1.0,79,0.00,,---,0.02,VWS V14.01,2013-07-25 17:42:00,
2013-07-25 13:45:00,73.9,66.2,29.88,East,99,0.0,3.0,77,0.00,,---,0.02,VWS V14.01,2013-07-25 17:45:00,
2013-07-25 13:47:00,73.7,67.2,29.89,North,352,0.0,0.0,80,0.00,,---,0.02,VWS V14.01,2013-07-25 17:47:00,
2013-07-25 13:50:00,74.4,67.1,29.88,NW,322,0.0,0.0,78,0.00,,---,0.02,VWS V14.01,2013-07-25 17:50:00,
2013-07-25 13:52:00,73.7,67.2,29.89,NNW,329,0.0,0.0,80,0.00,,---,0.02,VWS V14.01,2013-07-25 17:52:00,
2013-07-25 13:55:00,74.4,67.1,29.88,East,93,0.0,3.0,78,0.00,,---,0.02,VWS V14.01,2013-07-25 17:55:00,
2013-07-25 13:57:00,73.7,67.2,29.89,NNW,340,5.0,5.0,80,0.00,,---,0.02,VWS V14.01,2013-07-25 17:57:00,
2013-07-25 14:00:00,74.6,66.9,29.88,NW,311,0.0,2.0,77,0.00,,---,0.02,VWS V14.01,2013-07-25 18:00:00,
2013-07-25 14:02:00,73.7,67.5,29.88,North,354,0.0,0.0,81,0.00,,---,0.02,VWS V14.01,2013-07-25 18:02:00,
2013-07-25 14:05:00,74.4,66.7,29.88,NNW,340,1.0,3.0,77,0.00,,---,0.02,VWS V14.01,2013-07-25 18:05:00,
2013-07-25 14:07:00,73.7,67.2,29.88,North,0,0.0,3.0,80,0.00,,---,0.02,VWS V14.01,2013-07-25 18:07:00,
2013-07-25 14:10:00,74.2,66.5,29.88,NE,52,0.0,5.0,77,0.00,,---,0.02,VWS V14.01,2013-07-25 18:10:00,
2013-07-25 14:12:00,74.0,67.1,29.88,NNW,333,0.0,0.0,79,0.00,,---,0.02,VWS V14.01,2013-07-25 18:12:00,
2013-07-25 14:15:00,74.0,67.1,29.88,NNW,330,0.0,2.0,79,0.00,,---,0.02,VWS V14.01,2013-07-25 18:15:00,
2013-07-25 14:17:00,74.0,66.7,29.88,NNE,32,1.0,2.0,78,0.00,,---,0.02,VWS V14.01,2013-07-25 18:17:00,
2013-07-25 14:20:00,74.2,67.3,29.88,ENE,62,0.0,3.0,79,0.00,,---,0.02,VWS V14.01,2013-07-25 18:20:00,
2013-07-25 14:22:00,74.2,66.9,29.88,NE,35,0.0,2.0,78,0.00,,---,0.02,VWS V14.01,2013-07-25 18:22:00,
2013-07-25 14:25:00,74.4,67.5,29.88,NNW,346,0.0,0.0,79,0.00,,---,0.02,VWS V14.01,2013-07-25 18:25:00,
2013-07-25 14:27:00,74.0,66.7,29.88,NE,35,0.0,0.0,78,0.00,,---,0.02,VWS V14.01,2013-07-25 18:27:00,
2013-07-25 14:30:00,74.0,66.7,29.88,North,356,0.0,2.0,78,0.00,,---,0.02,VWS V14.01,2013-07-25 18:30:00,
2013-07-25 14:32:00,74.2,67.6,29.88,NE,35,0.0,0.0,80,0.00,,---,0.02,VWS V14.01,2013-07-25 18:32:00,
2013-07-25 14:35:00,73.7,66.4,29.88,North,352,0.0,3.0,78,0.00,,---,0.02,VWS V14.01,2013-07-25 18:35:00,
2013-07-25 14:37:00,74.2,67.3,29.88,NE,54,2.0,2.0,79,0.00,,---,0.02,VWS V14.01,2013-07-25 18:37:00,
2013-07-25 14:40:00,73.7,66.8,29.88,NE,38,1.0,1.0,79,0.00,,---,0.02,VWS V14.01,2013-07-25 18:40:00,
2013-07-25 14:42:00,74.2,67.6,29.88,West,264,1.0,3.0,80,0.00,,---,0.02,VWS V14.01,2013-07-25 18:42:00,
2013-07-25 14:45:00,73.7,67.2,29.89,North,349,0.0,3.0,80,0.00,,---,0.02,VWS V14.01,2013-07-25 18:45:00,
2013-07-25 14:47:00,74.0,66.3,29.88,NW,309,0.0,2.0,77,0.00,,---,0.02,VWS V14.01,2013-07-25 18:47:00,
2013-07-25 14:50:00,73.7,67.5,29.89,NW,318,0.0,2.0,81,0.00,,---,0.02,VWS V14.01,2013-07-25 18:50:00,
2013-07-25 14:52:00,73.9,66.6,29.88,SE,145,0.0,1.0,78,0.00,,---,0.02,VWS V14.01,2013-07-25 18:52:00,
2013-07-25 14:55:00,73.7,66.8,29.89,NNE,27,0.0,3.0,79,0.00,,---,0.02,VWS V14.01,2013-07-25 18:55:00,
2013-07-25 14:57:00,74.2,66.5,29.88,NNW,330,1.0,2.0,77,0.00,,---,0.02,VWS V14.01,2013-07-25 18:57:00,
2013-07-25 15:00:00,73.7,66.8,29.88,North,354,0.0,5.0,79,0.00,,---,0.02,VWS V14.01,2013-07-25 19:00:00,
2013-07-25 15:02:00,74.6,66.5,29.88,NW,323,2.0,3.0,76,0.00,,---,0.02,VWS V14.01,2013-07-25 19:02:00,
2013-07-25 15:05:00,73.7,67.2,29.88,NNW,329,0.0,1.0,80,0.00,,---,0.02,VWS V14.01,2013-07-25 19:05:00,
2013-07-25 15:07:00,74.9,67.6,29.88,North,356,0.0,1.0,78,0.00,,---,0.02,VWS V14.01,2013-07-25 19:07:00,
2013-07-25 15:10:00,73.9,67.0,29.88,NNW,339,0.0,3.0,79,0.00,,---,0.02,VWS V14.01,2013-07-25 19:10:00,
2013-07-25 15:12:00,75.4,66.9,29.88,North,357,0.0,0.0,75,0.00,,---,0.02,VWS V14.01,2013-07-25 19:12:00,
2013-07-25 15:15:00,74.0,66.7,29.88,NNW,336,1.0,1.0,78,0.00,,---,0.02,VWS V14.01,2013-07-25 19:15:00,
2013-07-25 15:17:00,75.8,67.3,29.88,WNW,296,0.0,0.0,75,0.00,,---,0.02,VWS V14.01,2013-07-25 19:17:00,
2013-07-25 15:20:00,74.2,66.5,29.88,NW,319,0.0,3.0,77,0.00,,---,0.02,VWS V14.01,2013-07-25 19:20:00,
2013-07-25 15:22:00,75.6,66.3,29.88,North,354,0.0,2.0,73,0.00,,---,0.02,VWS V14.01,2013-07-25 19:22:00,
2013-07-25 15:25:00,74.0,66.7,29.88,NE,35,0.0,2.0,78,0.00,,---,0.02,VWS V14.01,2013-07-25 19:25:00,
2013-07-25 15:27:00,75.4,66.5,29.88,North,0,0.0,0.0,74,0.00,,---,0.02,VWS V14.01,2013-07-25 19:27:00,
2013-07-25 15:30:00,74.0,67.4,29.88,NE,35,0.0,0.0,80,0.00,,---,0.02,VWS V14.01,2013-07-25 19:30:00,
2013-07-25 15:32:00,75.3,67.6,29.88,North,0,0.0,0.0,77,0.00,,---,0.02,VWS V14.01,2013-07-25 19:32:00,
2013-07-25 15:35:00,74.2,67.3,29.88,NE,35,0.0,0.0,79,0.00,,---,0.02,VWS V14.01,2013-07-25 19:35:00,
2013-07-25 15:37:00,75.3,68.0,29.88,North,0,0.0,0.0,78,0.00,,---,0.02,VWS V14.01,2013-07-25 19:37:00,
2013-07-25 15:40:00,74.2,67.3,29.88,North,11,0.0,2.0,79,0.00,,---,0.02,VWS V14.01,2013-07-25 19:40:00,
2013-07-25 15:42:00,75.4,67.3,29.88,North,0,0.0,0.0,76,0.00,,---,0.02,VWS V14.01,2013-07-25 19:42:00,
2013-07-25 15:45:00,74.0,66.3,29.88,NNW,335,2.0,3.0,77,0.00,,---,0.02,VWS V14.01,2013-07-25 19:45:00,
2013-07-25 15:47:00,75.6,67.5,29.88,North,354,0.0,0.0,76,0.00,,---,0.02,VWS V14.01,2013-07-25 19:47:00,
2013-07-25 15:50:00,73.9,66.6,29.88,NNE,30,0.0,2.0,78,0.00,,---,0.02,VWS V14.01,2013-07-25 19:50:00,
2013-07-25 15:52:00,75.6,67.9,29.88,North,354,0.0,0.0,77,0.00,,---,0.02,VWS V14.01,2013-07-25 19:52:00,
2013-07-25 15:55:00,74.0,67.1,29.88,NNW,337,0.0,1.0,79,0.00,,---,0.02,VWS V14.01,2013-07-25 19:55:00,
2013-07-25 15:57:00,75.8,68.1,29.88,North,354,0.0,0.0,77,0.00,,---,0.02,VWS V14.01,2013-07-25 19:57:00,
2013-07-25 16:00:00,74.4,66.7,29.88,NW,312,2.0,2.0,77,0.00,,---,0.02,VWS V14.01,2013-07-25 20:00:00,
2013-07-25 16:02:00,75.8,68.5,29.88,North,353,0.0,0.0,78,0.00,,---,0.02,VWS V14.01,2013-07-25 20:02:00,
2013-07-25 16:05:00,74.7,67.0,29.88,North,357,0.0,3.0,77,0.00,,---,0.02,VWS V14.01,2013-07-25 20:05:00,
2013-07-25 16:07:00,76.1,67.6,29.88,North,0,0.0,0.0,75,0.00,,---,0.02,VWS V14.01,2013-07-25 20:07:00,
2013-07-25 16:10:00,75.3,66.4,29.88,North,359,0.0,1.0,74,0.00,,---,0.02,VWS V14.01,2013-07-25 20:10:00,
2013-07-25 16:12:00,76.0,67.5,29.88,North,11,0.0,2.0,75,0.00,,---,0.02,VWS V14.01,2013-07-25 20:12:00,
2013-07-25 16:15:00,75.8,67.3,29.88,North,356,0.0,0.0,75,0.00,,---,0.02,VWS V14.01,2013-07-25 20:15:00,
2013-07-25 16:17:00,76.1,67.6,29.88,NNW,346,0.0,1.0,75,0.00,,---,0.02,VWS V14.01,2013-07-25 20:17:00,
2013-07-25 16:20:00,75.6,66.3,29.88,West,270,0.0,3.0,73,0.00,,---,0.02,VWS V14.01,2013-07-25 20:20:00,
2013-07-25 16:22:00,76.3,67.4,29.88,NNE,28,0.0,1.0,74,0.00,,---,0.02,VWS V14.01,2013-07-25 20:22:00,
2013-07-25 16:25:00,75.6,66.7,29.88,North,357,0.0,2.0,74,0.00,,---,0.02,VWS V14.01,2013-07-25 20:25:00,
2013-07-25 16:27:00,76.0,66.7,29.88,NNW,340,1.0,1.0,73,0.00,,---,0.02,VWS V14.01,2013-07-25 20:27:00,
2013-07-25 16:30:00,75.3,67.2,29.88,North,0,0.0,0.0,76,0.00,,---,0.02,VWS V14.01,2013-07-25 20:30:00,
2013-07-25 16:32:00,76.0,67.1,29.88,North,3,0.0,0.0,74,0.00,,---,0.02,VWS V14.01,2013-07-25 20:32:00,
2013-07-25 16:35:00,75.1,67.0,29.88,North,0,0.0,0.0,76,0.00,,---,0.02,VWS V14.01,2013-07-25 20:35:00,
2013-07-25 16:37:00,75.8,66.9,29.88,North,0,0.0,0.0,74,0.00,,---,0.02,VWS V14.01,2013-07-25 20:37:00,
2013-07-25 16:40:00,75.4,66.9,29.88,North,0,0.0,2.0,75,0.00,,---,0.02,VWS V14.01,2013-07-25 20:40:00,
2013-07-25 16:42:00,76.1,67.6,29.88,NNW,340,0.0,0.0,75,0.00,,---,0.02,VWS V14.01,2013-07-25 20:42:00,
2013-07-25 16:45:00,75.4,67.7,29.88,North,0,0.0,0.0,77,0.00,,---,0.02,VWS V14.01,2013-07-25 20:45:00,
2013-07-25 16:47:00,76.5,67.6,29.88,North,359,0.0,1.0,74,0.00,,---,0.02,VWS V14.01,2013-07-25 20:47:00,
2013-07-25 16:50:00,75.6,67.5,29.88,North,354,0.0,0.0,76,0.00,,---,0.02,VWS V14.01,2013-07-25 20:50:00,
2013-07-25 16:52:00,76.5,67.2,29.88,North,359,0.0,0.0,73,0.00,,---,0.02,VWS V14.01,2013-07-25 20:52:00,
2013-07-25 16:57:00,76.1,67.2,29.88,North,357,0.0,0.0,74,0.00,,---,0.02,VWS V14.01,2013-07-25 20:57:00,
2013-07-25 17:00:00,75.8,68.5,29.88,North,353,0.0,0.0,78,0.00,,---,0.02,VWS V14.01,2013-07-25 21:00:00,
2013-07-25 17:02:00,75.8,67.7,29.89,North,3,0.0,0.0,76,0.00,,---,0.02,VWS V14.01,2013-07-25 21:02:00,
2013-07-25 17:05:00,76.1,67.6,29.88,North,0,0.0,0.0,75,0.00,,---,0.02,VWS V14.01,2013-07-25 21:05:00,
2013-07-25 17:07:00,75.6,67.1,29.89,North,0,0.0,0.0,75,0.00,,---,0.02,VWS V14.01,2013-07-25 21:07:00,
2013-07-25 17:10:00,76.0,67.9,29.88,NNE,13,1.0,2.0,76,0.00,,---,0.02,VWS V14.01,2013-07-25 21:10:00,
2013-07-25 17:12:00,75.6,67.5,29.89,NNW,346,0.0,1.0,76,0.00,,---,0.02,VWS V14.01,2013-07-25 21:12:00,
2013-07-25 17:15:00,76.1,67.6,29.88,North,359,0.0,2.0,75,0.00,,---,0.02,VWS V14.01,2013-07-25 21:15:00,
2013-07-25 17:17:00,75.6,67.5,29.90,North,359,0.0,0.0,76,0.00,,---,0.02,VWS V14.01,2013-07-25 21:17:00,
2013-07-25 17:20:00,76.3,66.6,29.88,North,349,0.0,1.0,72,0.00,,---,0.02,VWS V14.01,2013-07-25 21:20:00,
2013-07-25 17:22:00,75.6,67.5,29.90,North,6,0.0,0.0,76,0.00,,---,0.02,VWS V14.01,2013-07-25 21:22:00,
2013-07-25 17:25:00,76.1,66.8,29.88,NE,54,0.0,1.0,73,0.00,,---,0.02,VWS V14.01,2013-07-25 21:25:00,
2013-07-25 17:27:00,75.8,66.9,29.90,NNE,16,0.0,1.0,74,0.00,,---,0.02,VWS V14.01,2013-07-25 21:27:00,
2013-07-25 17:30:00,76.0,67.1,29.88,North,7,0.0,2.0,74,0.00,,---,0.02,VWS V14.01,2013-07-25 21:30:00,
2013-07-25 17:32:00,76.0,67.1,29.89,NNE,16,0.0,0.0,74,0.00,,---,0.02,VWS V14.01,2013-07-25 21:32:00,
2013-07-25 17:35:00,75.8,67.3,29.88,North,0,0.0,2.0,75,0.00,,---,0.02,VWS V14.01,2013-07-25 21:35:00,
2013-07-25 17:37:00,76.0,67.9,29.89,NE,45,0.0,1.0,76,0.00,,---,0.02,VWS V14.01,2013-07-25 21:37:00,
2013-07-25 17:40:00,76.0,66.7,29.88,NNW,339,0.0,0.0,73,0.00,,---,0.02,VWS V14.01,2013-07-25 21:40:00,
2013-07-25 17:42:00,76.3,67.0,29.89,NW,320,0.0,3.0,73,0.00,,---,0.02,VWS V14.01,2013-07-25 21:42:00,
2013-07-25 17:45:00,76.3,67.4,29.88,North,359,0.0,0.0,74,0.00,,---,0.02,VWS V14.01,2013-07-25 21:45:00,
2013-07-25 17:47:00,76.0,66.3,29.89,NW,308,0.0,1.0,72,0.00,,---,0.02,VWS V14.01,2013-07-25 21:47:00,
2013-07-25 17:50:00,76.5,66.8,29.88,North,357,0.0,3.0,72,0.00,,---,0.02,VWS V14.01,2013-07-25 21:50:00,
2013-07-25 17:52:00,75.8,66.5,29.89,North,349,0.0,0.0,73,0.00,,---,0.02,VWS V14.01,2013-07-25 21:52:00,
2013-07-25 17:55:00,76.3,67.4,29.88,North,357,0.0,0.0,74,0.00,,---,0.02,VWS V14.01,2013-07-25 21:55:00,
2013-07-25 17:57:00,76.0,67.1,29.89,NNE,14,1.0,1.0,74,0.00,,---,0.02,VWS V14.01,2013-07-25 21:57:00,
2013-07-25 18:00:00,76.0,67.9,29.89,North,3,0.0,5.0,76,0.00,,---,0.02,VWS V14.01,2013-07-25 22:00:00,
2013-07-25 18:02:00,76.1,66.4,29.89,ENE,64,0.0,0.0,72,0.00,,---,0.02,VWS V14.01,2013-07-25 22:02:00,
2013-07-25 18:05:00,75.8,67.3,29.89,NNE,17,0.0,0.0,75,0.00,,---,0.02,VWS V14.01,2013-07-25 22:05:00,
2013-07-25 18:07:00,76.1,67.2,29.89,ENE,59,0.0,0.0,74,0.00,,---,0.02,VWS V14.01,2013-07-25 22:07:00,
2013-07-25 18:10:00,75.6,67.1,29.89,North,0,0.0,0.0,75,0.00,,---,0.02,VWS V14.01,2013-07-25 22:10:00,
2013-07-25 18:12:00,76.1,66.0,29.89,North,357,1.0,3.0,71,0.00,,---,0.02,VWS V14.01,2013-07-25 22:12:00,
2013-07-25 18:15:00,75.4,67.7,29.90,North,359,0.0,1.0,77,0.00,,---,0.02,VWS V14.01,2013-07-25 22:15:00,
2013-07-25 18:17:00,76.0,65.9,29.89,North,359,0.0,0.0,71,0.00,,---,0.02,VWS V14.01,2013-07-25 22:17:00,
2013-07-25 18:20:00,75.6,67.5,29.90,North,6,0.0,2.0,76,0.00,,---,0.02,VWS V14.01,2013-07-25 22:20:00,
2013-07-25 18:22:00,76.1,66.8,29.89,North,359,0.0,0.0,73,0.00,,---,0.02,VWS V14.01,2013-07-25 22:22:00,
2013-07-25 18:25:00,75.8,66.9,29.90,NNE,16,0.0,0.0,74,0.00,,---,0.02,VWS V14.01,2013-07-25 22:25:00,
2013-07-25 18:27:00,76.1,66.8,29.89,North,354,0.0,1.0,73,0.00,,---,0.02,VWS V14.01,2013-07-25 22:27:00,
2013-07-25 18:30:00,76.0,67.1,29.89,NNE,16,0.0,1.0,74,0.00,,---,0.02,VWS V14.01,2013-07-25 22:30:00,
2013-07-25 18:32:00,76.1,66.0,29.89,West,278,0.0,0.0,71,0.00,,---,0.02,VWS V14.01,2013-07-25 22:32:00,
2013-07-25 18:35:00,76.0,67.5,29.89,North,3,0.0,1.0,75,0.00,,---,0.02,VWS V14.01,2013-07-25 22:35:00,
2013-07-25 18:37:00,76.1,66.0,29.89,NW,311,0.0,0.0,71,0.00,,---,0.02,VWS V14.01,2013-07-25 22:37:00,
2013-07-25 18:40:00,76.3,67.4,29.89,North,350,3.0,3.0,74,0.00,,---,0.02,VWS V14.01,2013-07-25 22:40:00,
2013-07-25 18:42:00,76.1,67.2,29.89,NNW,346,0.0,1.0,74,0.00,,---,0.02,VWS V14.01,2013-07-25 22:42:00,
2013-07-25 18:45:00,76.1,66.4,29.89,NNW,336,0.0,3.0,72,0.00,,---,0.02,VWS V14.01,2013-07-25 22:45:00,
2013-07-25 18:47:00,76.1,66.8,29.89,NNW,346,0.0,0.0,73,0.00,,---,0.02,VWS V14.01,2013-07-25 22:47:00,
2013-07-25 18:50:00,76.0,66.3,29.89,North,350,0.0,4.0,72,0.00,,---,0.02,VWS V14.01,2013-07-25 22:50:00,
2013-07-25 18:52:00,76.0,66.7,29.89,NW,315,0.0,0.0,73,0.00,,---,0.02,VWS V14.01,2013-07-25 22:52:00,
2013-07-25 18:55:00,76.0,67.1,29.89,North,349,0.0,0.0,74,0.00,,---,0.02,VWS V14.01,2013-07-25 22:55:00,
2013-07-25 18:57:00,76.0,67.1,29.89,NW,315,0.0,0.0,74,0.00,,---,0.02,VWS V14.01,2013-07-25 22:57:00,
2013-07-25 19:00:00,76.1,67.2,29.89,ENE,64,0.0,2.0,74,0.00,,---,0.02,VWS V14.01,2013-07-25 23:00:00,
2013-07-25 19:02:00,76.0,67.9,29.90,NW,315,0.0,0.0,76,0.00,,---,0.02,VWS V14.01,2013-07-25 23:02:00,
2013-07-25 19:05:00,76.1,66.8,29.89,ENE,64,0.0,0.0,73,0.00,,---,0.02,VWS V14.01,2013-07-25 23:05:00,
2013-07-25 19:07:00,76.0,67.9,29.90,NE,54,0.0,3.0,76,0.00,,---,0.02,VWS V14.01,2013-07-25 23:07:00,
2013-07-25 19:10:00,76.1,66.4,29.89,NNW,346,0.0,1.0,72,0.00,,---,0.02,VWS V14.01,2013-07-25 23:10:00,
2013-07-25 19:12:00,75.8,66.9,29.90,NE,49,0.0,0.0,74,0.00,,---,0.02,VWS V14.01,2013-07-25 23:12:00,
2013-07-25 19:15:00,76.1,66.0,29.89,North,359,0.0,3.0,71,0.00,,---,0.02,VWS V14.01,2013-07-25 23:15:00,
2013-07-25 19:17:00,75.8,66.9,29.90,NE,49,0.0,0.0,74,0.00,,---,0.02,VWS V14.01,2013-07-25 23:17:00,
2013-07-25 19:20:00,76.0,66.3,29.89,North,357,0.0,0.0,72,0.00,,---,0.02,VWS V14.01,2013-07-25 23:20:00,
2013-07-25 19:22:00,75.8,67.3,29.90,NE,47,0.0,0.0,75,0.00,,---,0.02,VWS V14.01,2013-07-25 23:22:00,
2013-07-25 19:25:00,76.1,67.2,29.89,North,8,0.0,0.0,74,0.00,,---,0.02,VWS V14.01,2013-07-25 23:25:00,
2013-07-25 19:27:00,75.8,67.7,29.90,NE,47,0.0,0.0,76,0.00,,---,0.02,VWS V14.01,2013-07-25 23:27:00,
2013-07-25 19:30:00,76.1,66.0,29.89,NW,326,0.0,3.0,71,0.00,,---,0.02,VWS V14.01,2013-07-25 23:30:00,
2013-07-25 19:32:00,75.6,67.1,29.91,NE,47,0.0,0.0,75,0.00,,---,0.02,VWS V14.01,2013-07-25 23:32:00,
2013-07-25 19:35:00,76.1,66.0,29.89,NW,311,0.0,3.0,71,0.00,,---,0.02,VWS V14.01,2013-07-25 23:35:00,
2013-07-25 19:37:00,75.4,67.3,29.91,NE,47,0.0,0.0,76,0.00,,---,0.02,VWS V14.01,2013-07-25 23:37:00,
2013-07-25 19:40:00,76.1,66.4,29.89,North,0,0.0,2.0,72,0.00,,---,0.02,VWS V14.01,2013-07-25 23:40:00,
2013-07-25 19:42:00,75.4,67.7,29.91,NE,47,0.0,0.0,77,0.00,,---,0.02,VWS V14.01,2013-07-25 23:42:00,
2013-07-25 19:45:00,76.1,66.8,29.89,NNW,346,0.0,1.0,73,0.00,,---,0.02,VWS V14.01,2013-07-25 23:45:00,
2013-07-25 19:47:00,75.1,67.8,29.91,NE,47,0.0,0.0,78,0.00,,---,0.02,VWS V14.01,2013-07-25 23:47:00,
2013-07-25 19:50:00,76.0,66.7,29.89,NW,315,0.0,0.0,73,0.00,,---,0.02,VWS V14.01,2013-07-25 23:50:00,
2013-07-25 19:52:00,74.9,67.6,29.91,NE,47,0.0,0.0,78,0.00,,---,0.02,VWS V14.01,2013-07-25 23:52:00,
2013-07-25 19:55:00,76.0,66.7,29.89,NW,315,0.0,0.0,73,0.00,,---,0.02,VWS V14.01,2013-07-25 23:55:00,
2013-07-25 19:57:00,74.7,67.4,29.91,NE,47,0.0,0.0,78,0.00,,---,0.02,VWS V14.01,2013-07-25 23:57:00,
2013-07-25 20:00:00,76.0,67.5,29.90,NW,315,0.0,0.0,75,0.00,,---,0.02,VWS V14.01,2013-07-26 00:00:00,
2013-07-25 20:02:00,74.6,66.9,29.91,NE,47,0.0,0.0,77,0.00,,---,0.02,VWS V14.01,2013-07-26 00:02:00,
2013-07-25 20:05:00,76.0,67.5,29.90,North,349,0.0,0.0,75,0.00,,---,0.02,VWS V14.01,2013-07-26 00:05:00,
2013-07-25 20:07:00,74.4,67.1,29.91,NE,47,0.0,0.0,78,0.00,,---,0.02,VWS V14.01,2013-07-26 00:07:00,
2013-07-25 20:10:00,76.0,67.1,29.90,NE,49,0.0,3.0,74,0.00,,---,0.02,VWS V14.01,2013-07-26 00:10:00,
2013-07-25 20:12:00,74.2,66.9,29.91,NE,47,0.0,0.0,78,0.00,,---,0.02,VWS V14.01,2013-07-26 00:12:00,
2013-07-25 20:15:00,75.8,66.9,29.90,NE,49,0.0,0.0,74,0.00,,---,0.02,VWS V14.01,2013-07-26 00:15:00,
2013-07-25 20:17:00,74.0,67.1,29.92,NE,47,0.0,0.0,79,0.00,,---,0.02,VWS V14.01,2013-07-26 00:17:00,
2013-07-25 20:20:00,75.8,66.9,29.90,NE,47,0.0,0.0,74,0.00,,---,0.02,VWS V14.01,2013-07-26 00:20:00,
2013-07-25 20:22:00,73.9,67.3,29.92,NE,47,0.0,0.0,80,0.00,,---,0.02,VWS V14.01,2013-07-26 00:22:00,
2013-07-25 20:25:00,75.8,67.3,29.90,NE,47,0.0,0.0,75,0.00,,---,0.02,VWS V14.01,2013-07-26 00:25:00,
2013-07-25 20:27:00,73.7,67.2,29.92,NE,47,0.0,0.0,80,0.00,,---,0.02,VWS V14.01,2013-07-26 00:27:00,
2013-07-25 20:30:00,75.6,67.1,29.91,NE,47,0.0,0.0,75,0.00,,---,0.02,VWS V14.01,2013-07-26 00:30:00,
2013-07-25 20:32:00,73.3,67.1,29.92,NE,47,0.0,0.0,81,0.00,,---,0.02,VWS V14.01,2013-07-26 00:32:00,
2013-07-25 20:35:00,75.6,67.5,29.91,NE,47,0.0,0.0,76,0.00,,---,0.02,VWS V14.01,2013-07-26 00:35:00,
2013-07-25 20:37:00,73.2,67.4,29.92,NE,47,0.0,0.0,82,0.00,,---,0.02,VWS V14.01,2013-07-26 00:37:00,
2013-07-25 20:40:00,75.4,67.7,29.91,NE,47,0.0,0.0,77,0.00,,---,0.02,VWS V14.01,2013-07-26 00:40:00,
2013-07-25 20:42:00,73.0,67.2,29.92,NE,47,0.0,0.0,82,0.00,,---,0.02,VWS V14.01,2013-07-26 00:42:00,
2013-07-25 20:45:00,75.3,67.6,29.91,NE,47,0.0,0.0,77,0.00,,---,0.02,VWS V14.01,2013-07-26 00:45:00,
2013-07-25 20:47:00,72.8,67.0,29.92,NE,47,0.0,0.0,82,0.00,,---,0.02,VWS V14.01,2013-07-26 00:47:00,
2013-07-25 20:50:00,75.1,67.8,29.91,NE,47,0.0,0.0,78,0.00,,---,0.02,VWS V14.01,2013-07-26 00:50:00,
2013-07-25 20:52:00,72.7,66.9,29.92,NE,47,0.0,0.0,82,0.00,,---,0.02,VWS V14.01,2013-07-26 00:52:00,
2013-07-25 20:55:00,74.7,67.4,29.91,NE,47,0.0,0.0,78,0.00,,---,0.02,VWS V14.01,2013-07-26 00:55:00,
2013-07-25 20:57:00,72.5,66.7,29.92,NE,47,0.0,0.0,82,0.00,,---,0.02,VWS V14.01,2013-07-26 00:57:00,
2013-07-25 21:00:00,74.6,66.9,29.91,NE,47,0.0,0.0,77,0.00,,---,0.02,VWS V14.01,2013-07-26 01:00:00,
2013-07-25 21:02:00,72.3,66.8,29.92,NE,47,0.0,0.0,83,0.00,,---,0.02,VWS V14.01,2013-07-26 01:02:00,
2013-07-25 21:05:00,74.6,67.3,29.91,NE,47,0.0,0.0,78,0.00,,---,0.02,VWS V14.01,2013-07-26 01:05:00,
2013-07-25 21:07:00,72.3,66.8,29.92,NE,47,0.0,0.0,83,0.00,,---,0.02,VWS V14.01,2013-07-26 01:07:00,
2013-07-25 21:10:00,74.4,67.1,29.91,NE,47,0.0,0.0,78,0.00,,---,0.02,VWS V14.01,2013-07-26 01:10:00,
2013-07-25 21:12:00,72.1,66.7,29.92,NE,47,0.0,0.0,83,0.00,,---,0.02,VWS V14.01,2013-07-26 01:12:00,
2013-07-25 21:15:00,74.2,67.3,29.92,NE,47,0.0,0.0,79,0.00,,---,0.02,VWS V14.01,2013-07-26 01:15:00,
2013-07-25 21:17:00,72.0,66.6,29.93,NE,47,0.0,0.0,83,0.00,,---,0.02,VWS V14.01,2013-07-26 01:17:00,
2013-07-25 21:20:00,73.9,67.0,29.92,NE,47,0.0,0.0,79,0.00,,---,0.02,VWS V14.01,2013-07-26 01:20:00,
2013-07-25 21:22:00,71.8,66.7,29.93,NE,47,0.0,0.0,84,0.00,,---,0.02,VWS V14.01,2013-07-26 01:22:00,
2013-07-25 21:25:00,73.7,67.2,29.92,NE,47,0.0,0.0,80,0.00,,---,0.02,VWS V14.01,2013-07-26 01:25:00,
2013-07-25 21:27:00,71.8,67.1,29.93,NE,47,0.0,0.0,85,0.00,,---,0.02,VWS V14.01,2013-07-26 01:27:00,
2013-07-25 21:28:00,71.8,67.1,29.93,NE,47,0.0,0.0,85,0.00,,---,0.02,VWS V14.01,2013-07-26 01:28:00,
2013-07-25 21:30:00,73.5,67.0,29.92,NE,47,0.0,0.0,80,0.00,,---,0.02,VWS V14.01,2013-07-26 01:30:00,
2013-07-25 21:33:00,71.6,66.9,29.94,NE,47,0.0,0.0,85,0.00,,---,0.02,VWS V14.01,2013-07-26 01:33:00,
2013-07-25 21:35:00,73.2,67.0,29.92,NE,47,0.0,0.0,81,0.00,,---,0.02,VWS V14.01,2013-07-26 01:35:00,
2013-07-25 21:38:00,71.6,66.9,29.94,NE,47,0.0,0.0,85,0.00,,---,0.02,VWS V14.01,2013-07-26 01:38:00,
2013-07-25 21:40:00,73.0,67.2,29.92,NE,47,0.0,0.0,82,0.00,,---,0.02,VWS V14.01,2013-07-26 01:40:00,
2013-07-25 21:43:00,71.5,66.8,29.94,NE,47,0.0,0.0,85,0.00,,---,0.02,VWS V14.01,2013-07-26 01:43:00,
2013-07-25 21:45:00,72.8,67.0,29.92,NE,47,0.0,0.0,82,0.00,,---,0.02,VWS V14.01,2013-07-26 01:45:00,
2013-07-25 21:48:00,71.3,66.6,29.94,NE,47,0.0,0.0,85,0.00,,---,0.02,VWS V14.01,2013-07-26 01:48:00,
2013-07-25 21:50:00,72.7,66.9,29.92,NE,47,0.0,0.0,82,0.00,,---,0.02,VWS V14.01,2013-07-26 01:50:00,
2013-07-25 21:53:00,71.1,66.4,29.94,NE,47,0.0,0.0,85,0.00,,---,0.02,VWS V14.01,2013-07-26 01:53:00,
2013-07-25 21:55:00,72.7,66.9,29.92,NE,47,0.0,0.0,82,0.00,,---,0.02,VWS V14.01,2013-07-26 01:55:00,
2013-07-25 21:58:00,70.9,66.5,29.94,NE,47,0.0,0.0,86,0.00,,---,0.02,VWS V14.01,2013-07-26 01:58:00,
2013-07-25 22:00:00,72.5,67.1,29.92,NE,47,0.0,0.0,83,0.00,,---,0.02,VWS V14.01,2013-07-26 02:00:00,
2013-07-25 22:03:00,70.9,66.2,29.95,NE,47,0.0,0.0,85,0.00,,---,0.02,VWS V14.01,2013-07-26 02:03:00,
2013-07-25 22:05:00,72.3,66.8,29.92,NE,47,0.0,0.0,83,0.00,,---,0.02,VWS V14.01,2013-07-26 02:05:00,
2013-07-25 22:08:00,70.8,66.1,29.95,NE,47,0.0,0.0,85,0.00,,---,0.02,VWS V14.01,2013-07-26 02:08:00,
2013-07-25 22:10:00,72.1,66.7,29.92,NE,47,0.0,0.0,83,0.00,,---,0.02,VWS V14.01,2013-07-26 02:10:00,
2013-07-25 22:13:00,70.8,66.1,29.95,NE,47,0.0,0.0,85,0.00,,---,0.02,VWS V14.01,2013-07-26 02:13:00,
2013-07-25 22:15:00,72.1,66.7,29.93,NE,47,0.0,0.0,83,0.00,,---,0.02,VWS V14.01,2013-07-26 02:15:00,
2013-07-25 22:18:00,70.6,65.9,29.96,NE,47,0.0,0.0,85,0.00,,---,0.02,VWS V14.01,2013-07-26 02:18:00,
2013-07-25 22:20:00,72.0,66.9,29.93,NE,47,0.0,0.0,84,0.00,,---,0.02,VWS V14.01,2013-07-26 02:20:00,
2013-07-25 22:23:00,70.4,65.7,29.96,NE,47,0.0,0.0,85,0.00,,---,0.02,VWS V14.01,2013-07-26 02:23:00,
2013-07-25 22:25:00,71.8,67.1,29.93,NE,47,0.0,0.0,85,0.00,,---,0.02,VWS V14.01,2013-07-26 02:25:00,
2013-07-25 22:28:00,70.4,65.7,29.96,NE,47,0.0,0.0,85,0.00,,---,0.02,VWS V14.01,2013-07-26 02:28:00,
2013-07-25 22:30:00,71.6,66.9,29.94,NE,47,0.0,0.0,85,0.00,,---,0.02,VWS V14.01,2013-07-26 02:30:00,
2013-07-25 22:33:00,70.4,65.7,29.96,NE,47,0.0,0.0,85,0.00,,---,0.02,VWS V14.01,2013-07-26 02:33:00,
2013-07-25 22:35:00,71.6,66.9,29.94,NE,47,0.0,0.0,85,0.00,,---,0.02,VWS V14.01,2013-07-26 02:35:00,
2013-07-25 22:38:00,70.3,65.6,29.96,NE,47,0.0,0.0,85,0.00,,---,0.02,VWS V14.01,2013-07-26 02:38:00,
2013-07-25 22:40:00,71.6,66.9,29.94,NE,47,0.0,0.0,85,0.00,,---,0.02,VWS V14.01,2013-07-26 02:40:00,
2013-07-25 22:43:00,70.1,65.4,29.96,NE,47,0.0,0.0,85,0.00,,---,0.02,VWS V14.01,2013-07-26 02:43:00,
2013-07-25 22:45:00,71.5,66.8,29.94,NE,47,0.0,0.0,85,0.00,,---,0.02,VWS V14.01,2013-07-26 02:45:00,
2013-07-25 22:48:00,70.1,65.4,29.96,NE,47,0.0,0.0,85,0.00,,---,0.02,VWS V14.01,2013-07-26 02:48:00,
2013-07-25 22:50:00,71.3,66.6,29.94,NE,47,0.0,0.0,85,0.00,,---,0.02,VWS V14.01,2013-07-26 02:50:00,
2013-07-25 22:53:00,69.9,65.5,29.96,NE,47,0.0,0.0,86,0.00,,---,0.02,VWS V14.01,2013-07-26 02:53:00,
2013-07-25 22:55:00,71.1,66.4,29.94,NE,47,0.0,0.0,85,0.00,,---,0.02,VWS V14.01,2013-07-26 02:55:00,
2013-07-25 22:58:00,69.8,65.4,29.96,NE,47,0.0,0.0,86,0.00,,---,0.02,VWS V14.01,2013-07-26 02:58:00,
2013-07-25 23:00:00,70.9,66.2,29.95,NE,47,0.0,0.0,85,0.00,,---,0.02,VWS V14.01,2013-07-26 03:00:00,
2013-07-25 23:03:00,69.6,65.2,29.96,NE,47,0.0,0.0,86,0.00,,---,0.02,VWS V14.01,2013-07-26 03:03:00,
2013-07-25 23:05:00,70.8,66.1,29.95,NE,47,0.0,0.0,85,0.00,,---,0.02,VWS V14.01,2013-07-26 03:05:00,
2013-07-25 23:08:00,69.4,65.4,29.96,NE,47,0.0,0.0,87,0.00,,---,0.02,VWS V14.01,2013-07-26 03:08:00,
2013-07-25 23:10:00,70.8,66.1,29.95,NE,47,0.0,0.0,85,0.00,,---,0.02,VWS V14.01,2013-07-26 03:10:00,
2013-07-25 23:13:00,69.3,64.9,29.96,NE,47,0.0,0.0,86,0.00,,---,0.02,VWS V14.01,2013-07-26 03:13:00,
2013-07-25 23:15:00,70.6,65.9,29.96,NE,47,0.0,0.0,85,0.00,,---,0.02,VWS V14.01,2013-07-26 03:15:00,
2013-07-25 23:18:00,69.3,65.3,29.97,NE,47,0.0,0.0,87,0.00,,---,0.02,VWS V14.01,2013-07-26 03:18:00,
2013-07-25 23:20:00,70.6,65.9,29.96,NE,47,0.0,0.0,85,0.00,,---,0.02,VWS V14.01,2013-07-26 03:20:00,
2013-07-25 23:23:00,69.1,65.1,29.97,NE,47,0.0,0.0,87,0.00,,---,0.02,VWS V14.01,2013-07-26 03:23:00,
2013-07-25 23:25:00,70.4,65.7,29.96,NE,47,0.0,0.0,85,0.00,,---,0.02,VWS V14.01,2013-07-26 03:25:00,
2013-07-25 23:28:00,69.1,65.1,29.97,NE,47,0.0,0.0,87,0.00,,---,0.02,VWS V14.01,2013-07-26 03:28:00,
2013-07-25 23:30:00,70.4,65.7,29.96,NE,47,0.0,0.0,85,0.00,,---,0.02,VWS V14.01,2013-07-26 03:30:00,
2013-07-25 23:33:00,68.9,64.9,29.97,NE,47,0.0,0.0,87,0.00,,---,0.02,VWS V14.01,2013-07-26 03:33:00,
2013-07-25 23:35:00,70.3,65.6,29.96,NE,47,0.0,0.0,85,0.00,,---,0.02,VWS V14.01,2013-07-26 03:35:00,
2013-07-25 23:38:00,68.9,64.9,29.97,NE,47,0.0,0.0,87,0.00,,---,0.02,VWS V14.01,2013-07-26 03:38:00,
2013-07-25 23:40:00,70.3,65.6,29.96,NE,47,0.0,0.0,85,0.00,,---,0.02,VWS V14.01,2013-07-26 03:40:00,
2013-07-25 23:43:00,68.8,64.8,29.97,NE,47,0.0,0.0,87,0.00,,---,0.02,VWS V14.01,2013-07-26 03:43:00,
2013-07-25 23:45:00,70.1,65.4,29.96,NE,47,0.0,0.0,85,0.00,,---,0.02,VWS V14.01,2013-07-26 03:45:00,
2013-07-25 23:48:00,68.6,64.9,29.97,NE,47,0.0,0.0,88,0.00,,---,0.02,VWS V14.01,2013-07-26 03:48:00,
2013-07-25 23:50:00,69.9,65.2,29.96,NE,47,0.0,0.0,85,0.00,,---,0.02,VWS V14.01,2013-07-26 03:50:00,
2013-07-25 23:53:00,68.6,64.6,29.97,NE,47,0.0,0.0,87,0.00,,---,0.02,VWS V14.01,2013-07-26 03:53:00,
2013-07-25 23:55:00,69.8,65.4,29.96,NE,47,0.0,0.0,86,0.00,,---,0.02,VWS V14.01,2013-07-26 03:55:00,
2013-07-25 23:58:00,68.4,64.7,29.97,NE,47,0.0,0.0,88,0.00,,---,0.02,VWS V14.01,2013-07-26 03:58:00,